Location: ??????
(55.7522°N, 37.6156°E)
Time: 18:23:22
(UTC+00:00)

Cosmos 2016 Rocket - Pass Details

Date: 14 June 2025
Orbit: 947 x 998 km, 83.0° (Epoch: 13 July)

Event Time Altitude Azimuth Distance (km) Brightness Sun altitude
Rises 19:11:49 0° 348° (NNW) 3,699 8.7 -5.7°
Reaches altitude 10° 19:14:20 10° 348° (NNW) 2,754 7.8 -5.9°
Maximum altitude 19:20:41 86° 262° (W) 1,003 4.1 -6.3°
Drops below altitude 10° 19:27:03 10° 173° (S) 2,761 5.8 -6.7°
Enters shadow 19:28:02 - 173° (S) 3,135 6.1 -6.8°
